Station SRST2 - Sabine Pass, TX Image indicating link to RSS feed of recent meteorological observations for station SRST2


Conditions at SRST2 as of
(1:20 am CDT)
0620 GMT on 08/31/2026:
     

Click on the graph icon in the table below to see a time series plot of the last five days of that observation.

5-day plot - Wind Direction Wind Direction (WDIR):SSE ( 150 deg true )
5-day plot - Wind Speed Wind Speed (WSPD): 4 kts
5-day plot - Wind Gust Wind Gust (GST): 6 kts
5-day plot - Atmospheric Pressure Atmospheric Pressure (PRES):29.99 in
5-day plot - Air Temperature Air Temperature (ATMP): 86.4 °F
5-day plot - Dew Point Dew Point (DEWP): 77.2 °F
5-day plot - Heat Index Heat Index (HEAT): 97.9 °F
5-day plot - Wind Speed at 10 Meters Wind Speed at 10 meters (WSPD10M): 4 kts
5-day plot - Wind Speed at 20 Meters Wind Speed at 20 meters (WSPD20M): 4 kts
5-day plot -  Wind Speed, Wind Gust and Atmospheric Pressure Combined plot of Wind Speed, Gust, and Air Pressure
Supplemental Measurements
Lowest 1-minute Pressure
Time (CDT)Pressure
1:20 am29.99 in
Highest 1-minute Wind Speed
Time (CDT)5-day plot - 1-Minute Wind Speed WSPD 5-day plot - 1-Minute Wind Direction WDIR
1:17 am 6 ktsSSE ( 160 deg true )
Previous observations
TIME
(CDT)
5-day plot - Wind Direction
WDIR
 
5-day plot - Wind Speed
WSPD
kts
5-day plot - Wind Gust
GST
kts
5-day plot - Wave Height
WVHT
ft
5-day plot - Dominant Wave Period
DPD
sec
5-day plot - Average Wave Period
APD
sec
5-day plot - Mean Wave Direction
MWD
 
5-day plot - Atmospheric Pressure
PRES
in
5-day plot - Pressure Tendency
PTDY
in
5-day plot - Air Temperature
ATMP
°F
5-day plot - Water Temperature
WTMP
°F
5-day plot - Dew Point
DEWP
°F
5-day plot - Salinity
SAL
psu
5-day plot - Visibility
VIS
nmi
5-day plot - Tide (above MLLW)
TIDE
ft
2026-08-31 01:10 amSSE 6 8----29.99- 86.4- 77.0---
2026-08-31 01:00 amSSE 5 8----29.99+0.02 86.5- 76.8---
2026-08-31 12:50 amSSE 6 7----29.99- 86.4- 76.6---
2026-08-31 12:40 amSSE 6 9----29.99- 86.7- 76.6---
2026-08-31 12:30 amSSE 7 9----29.99- 86.7- 76.6---
2026-08-31 12:20 amSSE 7 9----29.99- 86.5- 76.8---
2026-08-31 12:10 amSSE 7 10----29.99- 86.7- 76.8---
2026-08-31 12:00 amSSE 6 8----30.00+0.04 86.5- 76.8---
2026-08-30 11:50 pmSSE 6 8----30.00- 86.5- 77.4---
2026-08-30 11:40 pmSSE 6 8----29.99- 86.5- 77.4---
2026-08-30 11:30 pmSSE 6 9----30.00- 86.4- 77.9---
2026-08-30 11:20 pm S 5 7----30.00- 86.4- 77.9---
2026-08-30 11:10 pm S 5 8----30.00- 86.2- 77.7---
2026-08-30 11:00 pm S 5 6----29.99+0.06 86.2- 77.7---
2026-08-30 10:50 pm S 6 8----29.99- 86.4- 77.5---
2026-08-30 10:40 pm S 6 8----29.99- 86.4- 77.5---
2026-08-30 10:30 pm S 6 8----29.99- 86.4- 77.5---
2026-08-30 10:20 pm S 5 7----29.98- 86.4- 77.2---
2026-08-30 10:10 pm S 6 7----29.98- 86.4- 77.0---
2026-08-30 10:00 pm S 6 7----29.97+0.04 86.4- 77.2---
2026-08-30 09:50 pm S 6 8----29.97- 86.4- 76.8---
2026-08-30 09:40 pmSSW 5 7----29.97- 86.2- 77.7---
2026-08-30 09:30 pmSSW 6 7----29.96- 86.4- 77.4---
2026-08-30 09:20 pmSSW 6 8----29.96- 86.4- 77.2---
2026-08-30 09:10 pmSSW 6 8----29.96- 86.4- 77.0---
2026-08-30 09:00 pm SW 6 8----29.96+0.01 86.2- 76.6---
2026-08-30 08:50 pm SW 5 6----29.95- 86.0- 77.2---
2026-08-30 08:40 pm SW 5 7----29.94- 86.0- 77.0---
2026-08-30 08:30 pm SW 5 8----29.94- 86.0- 77.4---
2026-08-30 08:20 pm SW 6 8----29.93- 86.0- 77.2---
2026-08-30 08:10 pm SW 6 9----29.93- 86.2- 77.0---
2026-08-30 08:00 pm SW 5 7----29.93-0.01 86.4- 77.0---
2026-08-30 07:50 pm SW 6 9----29.93- 86.5- 76.6---
2026-08-30 07:40 pmSSW 7 10----29.94- 86.9- 76.8---
2026-08-30 07:30 pmSSW 7 10----29.94- 87.1- 76.8---
2026-08-30 07:20 pmSSW 8 10----29.94- 87.3- 77.4---
2026-08-30 07:10 pmSSW 7 9----29.94- 87.4- 77.5---
2026-08-30 07:00 pmSSW 7 9----29.94-0.03 87.6- 77.0---
2026-08-30 06:50 pmSSW 8 10----29.94- 87.6- 77.7---
2026-08-30 06:40 pmSSW 8 10----29.94- 87.8- 78.4---
2026-08-30 06:30 pm S 8 11----29.94- 88.2- 77.7---
2026-08-30 06:20 pm S 8 10----29.94- 88.2- 78.1---
2026-08-30 06:10 pm S 8 11----29.94- 88.3- 77.9---
2026-08-30 06:00 pm S 9 11----29.94-0.04 88.2- 78.1---
2026-08-30 05:50 pm S 9 11----29.95- 88.3- 77.9---
2026-08-30 05:40 pm S 9 12----29.95- 88.5- 78.1---
2026-08-30 05:30 pm S 9 12----29.95- 88.5- 77.9---
2026-08-30 05:20 pm S 9 12----29.95- 88.7- 77.4---
2026-08-30 05:10 pm S 9 13----29.95- 88.9- 77.4---
2026-08-30 05:00 pm S 9 13----29.95-0.06 88.9- 78.1---
2026-08-30 04:50 pm S 9 12----29.95- 89.1- 77.7---
2026-08-30 04:40 pm S 9 12----29.95- 88.9- 77.7---
2026-08-30 04:30 pm S 9 12----29.96- 88.7- 78.1---
2026-08-30 04:20 pm S 9 12----29.96- 88.9- 77.9---
2026-08-30 04:10 pm S 9 12----29.96- 88.9- 77.5---
2026-08-30 04:00 pm S 9 12----29.96-0.06 88.5- 78.3---
2026-08-30 03:50 pm S 9 10----29.96- 88.5- 77.5---
2026-08-30 03:40 pmSSE 8 11----29.97- 88.7- 78.4---
2026-08-30 03:30 pmSSE 8 11----29.97- 88.7- 78.1---
2026-08-30 03:20 pmSSE 8 12----29.98- 88.7- 77.2---
2026-08-30 03:10 pmSSE 9 12----29.98- 88.7- 78.8---
2026-08-30 03:00 pm S 9 11----29.99-0.06 88.7- 78.3---
2026-08-30 02:50 pm S 9 12----29.99- 88.2- 77.7---
2026-08-30 02:40 pmSSE 9 11----29.99- 88.3- 78.1---
2026-08-30 02:30 pmSSE 9 11----30.00- 88.3- 78.4---
2026-08-30 02:20 pmSSE 8 10----30.00- 88.3- 78.3---
2026-08-30 02:10 pmSSE 8 11----30.01- 88.2- 78.4---
2026-08-30 02:00 pmSSE 9 10----30.01-0.04 88.2- 78.1---
2026-08-30 01:50 pmSSE 9 11----30.01- 87.6- 78.1---
2026-08-30 01:40 pmSSE 9 12----30.01- 88.2- 77.7---
2026-08-30 01:30 pm S 9 11----30.02- 88.3- 76.8---
2026-08-30 01:20 pm S 9 12----30.02- 88.2- 76.5---
2026-08-30 01:10 pm S 10 12----30.03- 88.2- 77.2---
2026-08-30 01:00 pm S 9 12----30.03-0.01 88.7- 77.0---
2026-08-30 12:50 pm S 8 11----30.03- 88.5- 77.4---
2026-08-30 12:40 pm S 8 10----30.04- 88.3- 77.9---
2026-08-30 12:30 pm S 8 10----30.04- 88.3- 77.7---
2026-08-30 12:20 pm S 8 10----30.04- 88.3- 77.7---
2026-08-30 12:10 pm S 7 9----30.04- 88.3- 77.7---
2026-08-30 12:00 pm S 7 10----30.04+0.00 88.3- 77.9---
2026-08-30 11:50 am S 6 8----30.04- 88.3- 77.7---
2026-08-30 11:40 am S 6 8----30.05- 88.2- 78.6---
2026-08-30 11:30 am S 6 9----30.04- 88.0- 79.0---
2026-08-30 11:20 am S 6 8----30.04- 87.4- 79.0---
2026-08-30 11:10 am S 6 9----30.04- 87.6- 79.0---
2026-08-30 11:00 am S 6 8----30.04+0.01 87.4- 78.3---
2026-08-30 10:50 amSSW 5 7----30.04- 88.2- 77.9---
2026-08-30 10:40 amSSW 4 6----30.04- 88.9- 77.4---
2026-08-30 10:30 amSSW 2 5----30.04- 88.0- 77.7---
2026-08-30 10:20 amWSW 3 7----30.04- 87.8- 77.7---
2026-08-30 10:10 am W 3 7----30.04- 88.0- 77.9---
2026-08-30 10:00 am W 3 7----30.04+0.03 87.1- 77.7---
2026-08-30 09:50 am W 3 5----30.04- 86.2- 77.7---
2026-08-30 09:40 amWNW 4 7----30.04- 86.0- 78.1---
2026-08-30 09:30 am NW 3 7----30.04- 85.8- 78.8---
2026-08-30 09:20 am NW 4 6----30.04- 85.1- 79.0---
2026-08-30 09:10 am NW 5 7----30.04- 84.9- 79.5---
2026-08-30 09:00 am NW 5 6----30.04+0.04 84.2- 79.7---
2026-08-30 08:50 am NW 5 6----30.03- 83.5- 79.7---
2026-08-30 08:40 am NW 5 6----30.03- 82.2- 79.5---
2026-08-30 08:30 am NW 4 5----30.03- 81.5- 79.7---
2026-08-30 08:20 amNNW 3 5----30.03- 80.6- 79.3---
2026-08-30 08:10 am NW 3 4----30.03- 79.7- 78.8---
2026-08-30 08:00 am NW 3 4----30.03+0.03 79.0- 78.3---
2026-08-30 07:50 amNNW 3 4----30.03- 78.6- 78.1---
2026-08-30 07:40 amNNW 3 4----30.03- 78.3- 77.7---
2026-08-30 07:30 am N 4 4----30.02- 78.3- 77.7---
2026-08-30 07:20 amNNW 4 4----30.02- 78.4- 77.9---
2026-08-30 07:10 amNNW 4 4----30.02- 78.4- 77.9---
2026-08-30 07:00 amNNW 4 5----30.01+0.02 78.4- 77.7---
2026-08-30 06:50 amNNW 5 5----30.01- 78.6- 77.7---
2026-08-30 06:40 am NW 5 5----30.01- 78.8- 77.7---
2026-08-30 06:30 am NW 5 5----30.01- 79.7- 78.1---
2026-08-30 06:20 am NW 4 5----30.01- 80.2- 78.3---
2026-08-30 06:10 amWNW 4 6----30.01- 81.1- 77.9---
2026-08-30 06:00 amWNW 4 5----30.00+0.00 82.8- 77.9---
2026-08-30 05:50 am SW 5 8----30.00- 84.2- 78.1---
2026-08-30 05:40 am SW 5 6----30.00- 84.2- 78.4---
2026-08-30 05:30 am SW 5 6----30.00- 84.2- 78.3---
2026-08-30 05:20 am SW 6 7----30.00- 84.4- 78.4---
2026-08-30 05:10 am SW 6 8----30.00- 84.4- 78.4---
2026-08-30 05:00 amSSW 7 8----30.00-0.01 84.7- 78.6---
2026-08-30 04:50 amSSW 5 8----30.00- 84.6- 78.8---
2026-08-30 04:40 amSSW 7 10----30.00- 84.7- 78.8---
2026-08-30 04:30 amSSW 7 8----30.00- 84.7- 78.6---
2026-08-30 04:20 amSSW 6 9----30.00- 84.6- 78.6---
2026-08-30 04:10 amSSW 6 8----30.00- 84.6- 78.6---
2026-08-30 04:00 amSSW 7 9----30.00-0.01 84.7- 78.6---
2026-08-30 03:50 amSSW 6 8----30.00- 84.7- 78.6---
2026-08-30 03:40 amSSW 6 8----30.00- 85.1- 78.6---
2026-08-30 03:30 amSSW 6 9----30.00- 85.1- 78.4---
2026-08-30 03:20 amSSW 6 8----30.00- 85.1- 77.9---
2026-08-30 03:10 amSSW 6 8----30.00- 85.1- 77.9---
2026-08-30 03:00 amSSW 6 9----30.00-0.01 85.1- 77.7---
2026-08-30 02:50 amSSW 6 8----30.00- 85.1- 77.9---
2026-08-30 02:40 amSSW 5 8----30.01- 84.9- 78.3---
2026-08-30 02:30 amSSW 6 9----30.01- 85.1- 78.3---
2026-08-30 02:20 amSSW 6 8----30.01- 85.1- 78.4---
2026-08-30 02:10 amSSW 7 9----30.01- 85.1- 78.6---
2026-08-30 02:00 amSSW 7 10----30.01+0.00 84.9- 78.4---
2026-08-30 01:50 amSSW 7 10----30.01- 85.1- 78.8---
2026-08-30 01:40 amSSW 7 10----30.01- 85.1- 79.0---
2026-08-30 01:30 amSSW 8 10----30.01- 85.3- 78.8---
2026-08-30 01:20 amSSW 8 10----30.01- 85.1- 78.6---
2026-08-30 01:10 amSSW 7 9----30.01- 85.3- 79.0---
2026-08-30 01:00 amSSW 8 11----30.01+0.01 85.5- 78.6---
2026-08-30 12:50 amSSW 8 12----30.01- 85.5- 78.4---